OBJECT C, 62731

Orbit data source: Space-Track

You're viewing an Uncataloged Satellite

Recently launched and/or uncataloged satellites may have evolving metadata. Metadata may include but not limited to: Owner, Maufacturer, Bus, Motor, and Mission.

OBJECT C, 62731 is a satellite owned by Yunyao yuhang (CN) in SSO that was launched on Mon, 20 Jan 2025 UTC via a GUSHENXING 1 launch vehicle from the Jiuquan Satellite Launch Center, China (JSC). Unknown objects in Earth's orbit typically refer to objects detected orbiting the Earth but have not yet been identified or cataloged. These objects could be anything from previously untracked satellites, spent rocket stages, debris from satellite collisions, or even natural meteoroids temporarily captured by Earth's gravity.

Loading next visibility...
Identifier
62731, 2025-013C
Orbit
SSO
Country
Flag of CNCN / PRC
Related business
None
Manufacturer
Changguang WJ
Mission
Operational Commercial Weather
Bus & Motor
YY-1, Unknown motor
Mass
~50 kg wet, ~50 kg dry
Launch date (UTC)
2025-01-20 (8 months ago)
Launch vehicle
GUSHENXING 1
Launch site
Jiuquan Satellite Launch Center, China (JSC)
Object type
Unknown
Shape & HBR
Box + 1 Pan, 2.5 m
Radar Cross Section
5.339 m², Medium (>0.1 m² and < 1m²)

Expand to show TLE details & history
Last TLE update: 16 hours ago

TLE from 16 hours ago
0 OBJECT C
1 62731U 25013C   25261.31433326  .00003715  00000-0  24219-3 0  9998
2 62731  97.6297  66.1759 0014087 219.5948 140.4252 15.08449960 36309
Epoch: 2025-09-18T07:32Z
TLE epoch observation values (Epoch: 2025-09-18T07:32:38.393Z)
Latitude
-0.00008°
Longitude
-44.46177°
Altitude
551.524 km
Speed
7.582 km/s
True Right ascension
04h 24m 42s
True Declination
0° 00' 00"
Sunlit
Object was in daylight at epoch
Visualization orbit readout
Latitude
Unknown
Longitude
Unknown
Altitude
Unknown
Speed
Unknown
Apparent Right ascension
Unknown
Apparent Declination
Unknown
Sunlit
N/A
Visualization observer readout
Local Sidereal Time
16:25:04
Azimuth
Unknown
Elevation
Unknown
Doppler factor
Unknown
Orbital elements
Apogee altitude
547.669 km
Perigee altitude
528.184 km
Semi-major axis
6,916.064 km
Eccentricity
0.00141
Inclination
97.6297°
RAAN
66.1759°
Arg. of periapsis
219.5948°
True anomaly
140.5279°
Mean anomaly
140.4252°
Eccentric anomaly
140.47656°
Mean motion
3.77359 °/min
Orbital period
95.4 mins
BSTAR
0.00024219
Loading maneuver chart data...
Computing Atmospheric mass density...
Loading historical data...
Loading historical data...
Loading historical data...
Loading historical data...
Loading historical data...
Loading historical data...
Loading historical data...
Other satellites on launch #13 in the year 2025 (2025-01-20 UTC)

Documentation

Showing up to 5 results
|